EAST LONDON, EAST LONDO current weather conditions

sailwx.info

Wind from 270 at 8 knots

Air temperature 17.0° C
Dewpoint 5.0° C

Last reported at 2015-May-30 05:00 UTC.
Time now 2015-May-30 06:31 UTC

Location: S 33°02' E 027°50'.
View on Google Maps.

See reports from other nearby stations

  
Tides and Currents Weather Stations Pressure Air Temp Water Temp Dewpoint Dewpoint Depression Visibility Wind Speed Wind Dir Waves Ship Positions
date/time (UTC)wind fromknots sea level pressurealtimeterstation pressurevisibilityair tempwater tempwave heightnotes
2015-May-30 05:00 270 8 17.0
2015-May-30 04:40 260 8 16.0
2015-May-30 04:00 290 2 14.0
2015-May-30 03:00 320 4 12.0
2015-May-29 19:00 350 4 17.0
2015-May-29 18:00 300 3 15.0
2015-May-29 17:00 16.0
2015-May-29 16:00 340 4 18.0
2015-May-29 15:00 030 3 19.0
2015-May-29 14:00 040 6 21.0
2015-May-29 13:00 080 7 23.0
2015-May-29 12:00 060 6 23.0
2015-May-29 11:00 100 5 23.0
2015-May-29 10:00 23.0
2015-May-29 09:00 260 3 22.0
2015-May-29 08:54 250 3 22.0
2015-May-29 08:00 220 3 19.0
2015-May-29 07:36 310 4 18.0
2015-May-29 07:00 320 6 15.0
2015-May-29 06:00 330 7 13.0
2015-May-29 05:00 330 8 12.0
2015-May-29 04:00 320 7 13.0
2015-May-29 03:00 320 7 14.0
2015-May-28 20:00 310 5 16.0
2015-May-28 19:00 310 5 15.0
2015-May-28 18:00 270 7 17.0
2015-May-28 17:00 250 7 17.0
2015-May-28 16:00 220 14 18.0
2015-May-28 15:00 220 16 19.0
2015-May-28 14:10 220 17 19.0
2015-May-28 14:08 220 18 gusting 27 19.0
2015-May-28 14:00 210 19 20.0
2015-May-28 13:00 210 19 20.0
2015-May-28 12:00 200 11 21.0
2015-May-28 11:00 210 12 22.0
2015-May-28 10:00 240 16 23.0
2015-May-28 09:00 220 14 22.0
2015-May-28 08:00 250 15 23.0
2015-May-28 07:00 280 7 22.0
2015-May-28 06:00 300 9 20.0